K0KDS Weather Reports


Display with metric or nautical units.
time (UTC)temp
F
wind
direction
speed
MPH
gust
MPH
rain 1hr
in
rain 24hr
in
rain mn
in
humidity
%
barometer
mb
20260906143226 76 107 3.0 9.0 0.00 0.00 0.00 89 1015.5
20260906141726 76 127 4.0 9.0 0.00 0.00 0.00 88 1015.7
20260906140226 75 96 3.0 10.0 0.00 0.00 0.00 89 1015.7
20260906134726 76 129 5.0 11.0 0.00 0.00 0.00 87 1015.5
20260906133226 75 220 3.0 11.0 0.00 0.00 0.00 89 1015.5
20260906131726 75 110 7.0 10.0 0.00 0.00 0.00 89 1015.4
20260906130226 74 99 3.0 7.0 0.00 0.00 0.00 91 1015.5
20260906124726 74 150 2.0 7.0 0.00 0.00 0.00 91 1015.4
20260906123226 73 98 4.0 6.0 0.00 0.00 0.00 92 1015.0
20260906121726 73 110 5.0 7.0 0.00 0.00 0.00 92 1014.8
20260906120226 73 94 5.0 11.0 0.00 0.00 0.00 91 1014.7
20260906114726 73 94 5.0 7.0 0.00 0.00 0.00 91 1014.5
20260906113226 73 93 3.0 8.0 0.00 0.00 0.00 91 1014.4
20260906111726 74 125 8.0 11.0 0.00 0.00 0.00 91 1014.2
20260906110226 74 95 10.0 10.0 0.00 0.00 0.00 90 1014.3
20260906104726 74 110 8.0 12.0 0.00 0.00 0.00 90 1014.2
20260906103226 74 109 4.0 5.0 0.00 0.00 0.00 90 1014.6
20260906101726 74 96 4.0 9.0 0.00 0.00 0.00 90 1014.6
20260906100226 74 97 6.0 12.0 0.00 0.00 0.00 90 1014.4
20260906094726 75 91 5.0 14.0 0.00 0.00 0.00 90 1014.5
20260906093226 75 103 9.0 11.0 0.00 0.00 0.00 90 1014.2
20260906092426 75 99 0.0 1.0 0.00 0.00 0.00 90 1014.2
20260906091625 75 104 0.0 1.0 0.00 0.00 0.00 91 1014.1
20260906091225 75 102 0.0 0.0 0.00 0.00 0.00 91 1014.1
20260906090825 75 108 0.0 0.0 0.00 0.00 0.00 90 1014.1
20260906090625 75 91 0.0 0.0 0.00 0.00 0.00 90 1014.0
20260906090425 75 91 0.0 0.0 0.00 0.00 0.00 90 1014.1
20260906090325 75 127 0.0 0.0 0.00 0.00 0.00 90 1014.1
20260906090226 0 146 520.0 0.0 0.00 0.00 0.00
20260906084725 76 89 0.0 2.0 0.00 0.00 0.00 90 1013.8
20260906083225 76 103 0.0 9.0 0.00 0.00 0.00 91 1013.7
20260906081725 76 110 3.0 10.0 0.00 0.00 0.00 91 1013.8
20260906080225 76 65 4.0 11.0 0.00 0.00 0.00 91 1013.8
20260906074725 76 113 0.0 9.0 0.00 0.00 0.00 91 1013.7
20260906073225 76 88 2.0 11.0 0.00 0.00 0.00 91 1013.7
20260906071725 77 102 4.0 12.0 0.00 0.00 0.00 91 1013.8
20260906070225 77 101 5.0 8.0 0.00 0.00 0.00 92 1013.8
20260906064725 78 89 4.0 7.0 0.00 0.00 0.00 92 1013.6
20260906063225 78 84 5.0 8.0 0.00 0.00 0.00 92 1013.8
20260906061725 78 111 3.0 8.0 0.00 0.00 0.00 92 1013.9
20260906060225 79 99 2.0 8.0 0.00 0.00 0.00 91 1013.7
20260906054725 79 68 5.0 9.0 0.00 0.00 0.00 91 1013.7
20260906053225 79 108 2.0 7.0 0.00 0.00 0.00 90 1013.8
20260906051725 80 111 3.0 6.0 0.00 0.00 0.00 89 1013.7
20260906050225 80 91 0.0 6.0 0.00 0.00 0.00 89 1013.9
20260906044725 80 79 2.0 6.0 0.00 0.00 0.00 88 1013.6
20260906043225 81 91 1.0 5.0 0.00 0.00 0.00 87 1013.6
20260906041725 81 81 2.0 8.0 0.00 0.00 0.00 86 1013.3
20260906040225 82 94 3.0 6.0 0.00 0.00 0.00 85 1013.3
20260906034725 82 100 1.0 6.0 0.00 0.00 0.00 85 1013.2
20260906033225 82 75 0.0 6.0 0.00 0.00 0.00 84 1013.3
20260906031725 82 63 1.0 4.0 0.00 0.00 0.00 83 1013.3
20260906030225 83 78 0.0 3.0 0.00 0.00 0.00 81 1013.2
20260906024725 83 81 0.0 3.0 0.00 0.00 0.00 81 1012.9
20260906023225 83 77 0.0 2.0 0.00 0.00 0.00 80 1012.9
20260906021725 84 94 2.0 4.0 0.00 0.00 0.00 79 1012.6
20260906020225 84 98 1.0 4.0 0.00 0.00 0.00 79 1012.3
20260906014725 84 91 1.0 4.0 0.00 0.00 0.00 78 1012.1
20260906013225 85 106 0.0 6.0 0.00 0.00 0.00 78 1012.0
20260906011725 85 48 3.0 7.0 0.00 0.00 0.00 77 1012.0
20260906010225 85 68 4.0 7.0 0.00 0.00 0.00 76 1011.8
20260906004725 87 70 3.0 6.0 0.00 0.00 0.00 75 1011.8
20260906003225 87 51 3.0 8.0 0.00 0.00 0.00 73 1011.9
20260906001725 88 89 4.0 7.0 0.00 0.00 0.00 71 1011.8
20260906000226 89 92 1.0 10.0 0.00 0.00 0.00 70 1011.7
20260905234725 89 101 6.0 11.0 0.00 0.00 0.00 70 1011.6
20260905233225 89 72 3.0 11.0 0.00 0.00 0.00 71 1011.4
20260905231725 89 41 10.0 11.0 0.00 0.00 0.00 69 1011.6
20260905230225 90 113 7.0 13.0 0.00 0.00 0.00 68 1011.4
20260905224725 90 70 5.0 9.0 0.00 0.00 0.00 68 1011.5
20260905223225 90 86 5.0 13.0 0.00 0.00 0.00 68 1011.4
20260905221725 90 45 11.0 11.0 0.00 0.00 0.00 67 1011.3
20260905220225 90 58 7.0 13.0 0.00 0.00 0.00 67 1011.4
20260905214725 91 75 6.0 11.0 0.00 0.00 0.00 67 1011.4
20260905213225 90 72 9.0 11.0 0.00 0.00 0.00 68 1011.6
20260905211725 90 59 5.0 11.0 0.00 0.00 0.00 67 1011.9
20260905210225 91 46 8.0 13.0 0.00 0.00 0.00 66 1011.9
20260905204725 90 140 7.0 16.0 0.00 0.00 0.00 66 1011.6
20260905203225 90 51 9.0 14.0 0.00 0.00 0.00 67 1011.6
20260905201725 90 84 7.0 15.0 0.00 0.00 0.00 70 1011.8
20260905200225 90 105 3.0 10.0 0.00 0.10 0.00 70 1012.0
20260905194725 90 90 4.0 10.0 0.00 0.10 0.00 71 1012.2
20260905193225 89 60 5.0 11.0 0.00 0.10 0.00 71 1012.3
20260905191725 90 45 7.0 9.0 0.00 0.10 0.00 72 1012.6
20260905190225 89 54 3.0 9.0 0.00 0.10 0.00 72 1013.1
20260905184725 88 15 6.0 8.0 0.00 0.10 0.00 73 1013.5
20260905183225 88 62 3.0 9.0 0.00 0.10 0.00 74 1013.5
20260905181725 87 47 4.0 9.0 0.00 0.10 0.00 76 1013.7
20260905180225 87 32 3.0 11.0 0.00 0.10 0.00 76 1013.5
20260905174725 87 12 6.0 11.0 0.00 0.10 0.00 77 1013.7
20260905173225 87 341 5.0 14.0 0.00 0.10 0.00 77 1013.7
20260905171725 86 325 10.0 12.0 0.00 0.10 0.00 77 1013.8
20260905170225 85 330 1.0 14.0 0.00 0.10 0.00 80 1013.7
20260905164725 86 293 4.0 9.0 0.00 0.10 0.00 76 1013.7
20260905163225 87 44 1.0 5.0 0.00 0.10 0.00 73 1013.5
20260905161725 86 322 2.0 4.0 0.00 0.10 0.00 76 1013.6
20260905160225 86 36 3.0 5.0 0.00 0.10 0.00 77 1013.5
20260905154725 86 333 2.0 5.0 0.00 0.10 0.00 75 1013.5
20260905153225 86 330 3.0 5.0 0.00 0.10 0.00 77 1013.3
20260905151725 85 322 0.0 2.0 0.00 0.10 0.00 74 1013.4
20260905150225 86 281 0.0 0.0 0.00 0.10 0.00 74 1013.2
20260905144725 85 259 0.0 0.0 0.00 0.10 0.00 76 1012.9